| time (UTC) | temp F | wind direction | speed MPH | gust MPH | rain 1hr in | rain 24hr in | rain mn in | humidity % | barometer mb |
| 20260506061538 | 49 | 0 | 0.0 | 0.0 | 0.00 | 0.28 | 0.28 | 86 | 1013.1 |
| 20260506044546 | 51 | 0 | 0.0 | 2.0 | 0.02 | 0.28 | 0.28 | 78 | 1012.2 |
| 20260506043040 | 52 | 0 | 0.0 | 2.0 | 0.05 | 0.28 | 0.28 | 74 | 1012.1 |
| 20260506041548 | 53 | 151 | 1.0 | 6.0 | 0.05 | 0.28 | 0.28 | 73 | 1011.8 |
| 20260506040040 | 55 | 269 | 0.0 | 8.0 | 0.05 | 0.28 | 0.28 | 69 | 1011.8 |
| 20260506034539 | 62 | 111 | 6.0 | 12.0 | 0.02 | 0.25 | 0.25 | 58 | 1013.2 |
| 20260506033038 | 61 | 142 | 1.0 | 4.0 | 0.00 | 0.23 | 0.23 | 60 | 1011.3 |
| 20260506031538 | 61 | 141 | 2.0 | 3.0 | 0.00 | 0.23 | 0.23 | 59 | 1011.1 |
| 20260506030037 | 61 | 141 | 1.0 | 2.0 | 0.00 | 0.23 | 0.23 | 56 | 1010.8 |
| 20260506024539 | 62 | 181 | 0.0 | 1.0 | 0.00 | 0.23 | 0.23 | 52 | 1010.4 |
| 20260506023040 | 63 | 0 | 0.0 | 2.0 | 0.00 | 0.23 | 0.23 | 51 | 1010.3 |
| 20260506021546 | 64 | 158 | 1.0 | 4.0 | 0.00 | 0.23 | 0.23 | 50 | 1010.2 |
| 20260506020037 | 66 | 0 | 1.0 | 4.0 | 0.00 | 0.23 | 0.23 | 46 | 1010.3 |
| 20260506014537 | 67 | 144 | 1.0 | 5.0 | 0.00 | 0.23 | 0.23 | 44 | 1010.3 |
| 20260506013044 | 68 | 146 | 0.0 | 6.0 | 0.00 | 0.23 | 0.23 | 44 | 1010.1 |
| 20260506011604 | 69 | 154 | 2.0 | 7.0 | 0.00 | 0.23 | 0.23 | 44 | 1010.2 |
| 20260506010039 | 69 | 131 | 2.0 | 5.0 | 0.00 | 0.23 | 0.23 | 44 | 1010.1 |
| 20260506004543 | 69 | 0 | 0.0 | 6.0 | 0.00 | 0.23 | 0.23 | 46 | 1010.1 |
| 20260506003038 | 69 | 124 | 2.0 | 5.0 | 0.00 | 0.23 | 0.23 | 45 | 1010.2 |
| 20260506001536 | 69 | 0 | 1.0 | 5.0 | 0.00 | 0.23 | 0.23 | 45 | 1010.2 |
| 20260506000046 | 69 | 143 | 2.0 | 4.0 | 0.00 | 0.23 | 0.23 | 45 | 1010.4 |
| 20260505234535 | 70 | 150 | 0.0 | 5.0 | 0.00 | 0.23 | 0.23 | 45 | 1010.5 |
| 20260505233038 | 69 | 208 | 0.0 | 4.0 | 0.00 | 0.23 | 0.23 | 47 | 1010.6 |
| 20260505231541 | 68 | 0 | 1.0 | 6.0 | 0.00 | 0.23 | 0.23 | 46 | 1010.9 |
| 20260505230038 | 68 | 0 | 1.0 | 4.0 | 0.00 | 0.23 | 0.23 | 51 | 1010.9 |
| 20260505224537 | 67 | 126 | 1.0 | 5.0 | 0.00 | 0.23 | 0.23 | 52 | 1011.0 |
| 20260505223036 | 68 | 80 | 0.0 | 4.0 | 0.00 | 0.23 | 0.23 | 53 | 1011.2 |
| 20260505221535 | 65 | 0 | 0.0 | 6.0 | 0.00 | 0.23 | 0.23 | 50 | 1011.5 |
| 20260505220051 | 67 | 0 | 2.0 | 6.0 | 0.00 | 0.23 | 0.23 | 48 | 1011.7 |
| 20260505214543 | 67 | 0 | 0.0 | 5.0 | 0.00 | 0.24 | 0.23 | 51 | 1011.8 |
| 20260505213039 | 67 | 155 | 2.0 | 6.0 | 0.00 | 0.24 | 0.23 | 53 | 1012.0 |
| 20260505211539 | 66 | 94 | 1.0 | 5.0 | 0.00 | 0.24 | 0.23 | 56 | 1012.0 |
| 20260505210046 | 65 | 225 | 2.0 | 7.0 | 0.00 | 0.24 | 0.23 | 54 | 1012.1 |
| 20260505204547 | 65 | 300 | 1.0 | 5.0 | 0.00 | 0.24 | 0.23 | 55 | 1012.2 |
| 20260505203038 | 65 | 0 | 0.0 | 7.0 | 0.00 | 0.24 | 0.23 | 53 | 1012.4 |
| 20260505201541 | 64 | 97 | 0.0 | 6.0 | 0.00 | 0.24 | 0.23 | 56 | 1012.4 |
| 20260505200037 | 64 | 221 | 1.0 | 6.0 | 0.00 | 0.24 | 0.23 | 56 | 1012.4 |
| 20260505194532 | 64 | 98 | 1.0 | 3.0 | 0.00 | 0.24 | 0.23 | 59 | 1012.4 |
| 20260505193042 | 63 | 132 | 0.0 | 4.0 | 0.00 | 0.24 | 0.23 | 58 | 1012.4 |
| 20260505191537 | 62 | 0 | 0.0 | 3.0 | 0.00 | 0.24 | 0.23 | 63 | 1012.4 |
| 20260505190037 | 61 | 323 | 1.0 | 7.0 | 0.00 | 0.24 | 0.23 | 65 | 1012.4 |
| 20260505184537 | 59 | 295 | 0.0 | 3.0 | 0.00 | 0.24 | 0.23 | 69 | 1012.4 |
| 20260505183048 | 59 | 0 | 0.0 | 5.0 | 0.00 | 0.24 | 0.23 | 72 | 1012.3 |
| 20260505181535 | 58 | 0 | 0.0 | 4.0 | 0.00 | 0.24 | 0.23 | 74 | 1012.4 |
| 20260505180040 | 57 | 153 | 0.0 | 3.0 | 0.00 | 0.24 | 0.23 | 79 | 1012.2 |
| 20260505174537 | 55 | 0 | 1.0 | 4.0 | 0.00 | 0.24 | 0.23 | 83 | 1012.2 |
| 20260505173038 | 53 | 0 | 0.0 | 3.0 | 0.00 | 0.24 | 0.23 | 89 | 1012.1 |
| 20260505171537 | 52 | 0 | 0.0 | 2.0 | 0.00 | 0.24 | 0.23 | 91 | 1012.1 |
| 20260505170038 | 51 | 0 | 0.0 | 1.0 | 0.00 | 0.24 | 0.23 | 92 | 1012.0 |
| 20260505164553 | 51 | 0 | 0.0 | 2.0 | 0.00 | 0.24 | 0.23 | 92 | 1011.9 |
| 20260505163039 | 51 | 0 | 0.0 | 2.0 | 0.00 | 0.24 | 0.23 | 93 | 1011.7 |
| 20260505161549 | 51 | 0 | 0.0 | 3.0 | 0.00 | 0.24 | 0.23 | 94 | 1011.7 |
| 20260505153036 | 49 | 0 | 0.0 | 2.0 | 0.00 | 0.24 | 0.23 | 93 | 1011.2 |
| 20260505151538 | 49 | 0 | 0.0 | 0.0 | 0.00 | 0.24 | 0.23 | 94 | 1011.2 |
| 20260505124545 | 48 | 128 | 1.0 | 3.0 | 0.06 | 0.22 | 0.21 | 92 | 1009.9 |
| 20260505123038 | 48 | 136 | 1.0 | 5.0 | 0.03 | 0.19 | 0.18 | 91 | 1009.8 |
| 20260505121539 | 48 | 138 | 0.0 | 2.0 | 0.01 | 0.17 | 0.16 | 91 | 1009.6 |
| 20260505120048 | 48 | 0 | 0.0 | 0.0 | 0.00 | 0.16 | 0.15 | 91 | 1009.2 |
| 20260505114536 | 48 | 0 | 0.0 | 0.0 | 0.00 | 0.16 | 0.15 | 91 | 1009.0 |
| 20260505113038 | 48 | 0 | 0.0 | 2.0 | 0.00 | 0.16 | 0.15 | 91 | 1008.8 |
| 20260505111538 | 47 | 0 | 0.0 | 2.0 | 0.00 | 0.16 | 0.15 | 91 | 1008.8 |
| 20260505101539 | 48 | 0 | 0.0 | 1.0 | 0.04 | 0.16 | 0.15 | 90 | 1008.7 |
| 20260505100039 | 48 | 245 | 0.0 | 5.0 | 0.05 | 0.16 | 0.15 | 90 | 1008.8 |
| 20260505094539 | 48 | 278 | 2.0 | 8.0 | 0.06 | 0.16 | 0.15 | 90 | 1008.7 |
| 20260505093038 | 48 | 157 | 0.0 | 3.0 | 0.03 | 0.13 | 0.12 | 90 | 1009.1 |
| 20260505091540 | 48 | 70 | 1.0 | 7.0 | 0.03 | 0.12 | 0.11 | 89 | 1009.0 |
| 20260505090034 | 49 | 266 | 1.0 | 6.0 | 0.05 | 0.11 | 0.10 | 89 | 1009.0 |
| 20260505084547 | 48 | 299 | 0.0 | 1.0 | 0.07 | 0.10 | 0.09 | 87 | 1008.7 |
| 20260505083046 | 48 | 280 | 0.0 | 3.0 | 0.09 | 0.10 | 0.09 | 86 | 1008.7 |
| 20260505081543 | 49 | 0 | 0.0 | 3.0 | 0.08 | 0.09 | 0.08 | 84 | 1009.2 |
| 20260505080036 | 50 | 0 | 0.0 | 2.0 | 0.05 | 0.06 | 0.05 | 82 | 1009.6 |
| 20260505074539 | 50 | 0 | 0.0 | 1.0 | 0.02 | 0.03 | 0.02 | 80 | 1009.7 |
| 20260505073039 | 50 | 0 | 0.0 | 0.0 | 0.00 | 0.01 | 0.00 | 78 | 1009.7 |
| 20260505071537 | 51 | 0 | 0.0 | 1.0 | 0.00 | 0.01 | 0.00 | 77 | 1009.5 |
| 20260505070044 | 51 | 0 | 0.0 | 3.0 | 0.00 | 0.01 | 0.00 | 76 | 1009.0 |